Lihue, HI

4:46 PM HST on January 16, 2017 (GMT -1000)
Lihue

Weather History for PHLI - August, 2014

Change the Weather History Date:

Saturday, August 9, 2014

  Actual Average Record
Temperature  
Mean Temperature 75 °F 80 °F  
Max Temperature 79 °F 85 °F 89 °F (1981)
Min Temperature 71 °F 75 °F 66 °F (1979)
Degree Days  
Heating Degree Days 0 0  
Month to date heating degree days 0 0  
Since 1 June heating degree days 0 0  
Since 1 July heating degree days 0 0  
Cooling Degree Days 10 15  
Month to date cooling degree days 138 134  
Year to date cooling degree days 2202 2206  
Since 1 June cooling degree days 981 967  
Growing Degree Days 25 (Base 50)    
Moisture  
Dew Point 71 °F    
Average Humidity 85    
Maximum Humidity 94    
Minimum Humidity 76    
Precipitation  
Precipitation 1.90 in 0.08 in 1.92 in (2014)
Month to date precipitation 2.87 0.67  
Year to date precipitation 23.24 19.99  
Snow  
Snow 0.00 in - - ()
Month to date snowfall 0.0  
Since 1 June snowfall 0.0  
Since 1 July snowfall 0.0  
Snow Depth 0.00 in    
Sea Level Pressure  
Sea Level Pressure 29.98 in    
Wind  
Wind Speed 8 mph (ENE)    
Max Wind Speed 14 mph    
Max Gust Speed 16 mph    
Visibility 8 miles    
Events Rain , Thunderstorm    
T = Trace of Precipitation, MM = Missing Value Source: NWS Daily Summary

Daily Weather History Graph

Daily Weather History Graph

Search for Another Location

Airport or City:

Trip Planner

Search our weather history database for the weather conditions in past years. The results will help you decide how hot, cold, wet, or windy it might be!

Date:

Astronomy

Aug. 09, 2014 Rise Set
Actual Time 6:12 AM HST 7:12 PM HST
Civil Twilight 5:49 AM HST 7:35 PM HST
Nautical Twilight 5:21 AM HST 8:03 PM HST
Astronomical Twilight 4:53 AM HST 8:31 PM HST
Moon 6:27 PM HST (8/9) 5:06 AM HST (8/9)
Length of Visible Light 13h 46m
Length of Day
12h 59m
Waxing Gibbous, 99% of the Moon is Illuminated
Aug 9
Waxing Gibbous
Aug 10
Full
Aug 17
Last Quarter
Aug 25
New
Sep 2
First Quarter

Hourly Weather History & Observations

Time (HST) Temp. Dew Point Humidity Pressure Visibility Wind Dir Wind Speed Gust Speed Precip Events Conditions
12:06 AM 75.2 °F 71.6 °F 89% 29.99 in 6.0 mi East 10.4 mph - 0.01 in Rain Light Rain
12:13 AM 75.2 °F 73.4 °F 94% 29.99 in 7.0 mi East 9.2 mph - 0.02 in Rain Light Rain
12:16 AM 75.2 °F 73.4 °F 94% 29.99 in 7.0 mi East 12.7 mph - 0.02 in Rain Light Rain
12:25 AM 73.4 °F 71.6 °F 94% 29.99 in 9.0 mi ESE 17.3 mph - 0.03 in Rain Light Rain
12:50 AM 73.4 °F 68.0 °F 83% 29.99 in 8.0 mi ESE 15.0 mph - 0.04 in Rain Light Rain
12:53 AM 73.0 °F 69.1 °F 87% 29.99 in 9.0 mi ESE 13.8 mph - 0.04 in Rain Light Rain
1:53 AM 73.0 °F 70.0 °F 90% 29.97 in 6.0 mi South 5.8 mph - 0.15 in Rain Rain
2:36 AM 73.4 °F 69.8 °F 88% 29.96 in 4.0 mi Calm Calm - 0.14 in Rain , Thunderstorm Thunderstorms and Rain
2:43 AM 73.4 °F 69.8 °F 88% 29.97 in 1.0 mi NNW 3.5 mph - 0.30 in Rain , Thunderstorm Heavy Thunderstorms and Rain
2:50 AM 71.6 °F 69.8 °F 94% 29.97 in 0.8 mi Variable 4.6 mph - 0.73 in Rain , Thunderstorm Heavy Thunderstorms and Rain
2:53 AM 72.0 °F 70.0 °F 93% 29.96 in 1.0 mi NNW 5.8 mph - 0.80 in Rain , Thunderstorm Heavy Thunderstorms and Rain
2:58 AM 73.4 °F 69.8 °F 88% 29.97 in 3.0 mi Variable 4.6 mph - 0.03 in Rain , Thunderstorm Heavy Thunderstorms and Rain
3:29 AM 75.2 °F 73.4 °F 94% 29.96 in 4.0 mi East 23.0 mph 28.8 mph 0.15 in Rain , Thunderstorm Thunderstorms and Rain
3:53 AM 75.0 °F 68.0 °F 79% 29.97 in 10.0 mi East 18.4 mph - 0.15 in Rain , Thunderstorm Light Thunderstorms and Rain
4:41 AM 71.6 °F 69.8 °F 94% 30.00 in 2.5 mi South 13.8 mph 24.2 mph 0.16 in Rain , Thunderstorm Heavy Thunderstorms and Rain
4:49 AM 71.6 °F 68.0 °F 88% 29.99 in 3.0 mi SSE 11.5 mph 25.3 mph 0.28 in Rain , Thunderstorm Thunderstorms and Rain
4:53 AM 72.0 °F 68.0 °F 87% 29.99 in 5.0 mi SSE 13.8 mph - 0.29 in Rain , Thunderstorm Thunderstorms and Rain
5:00 AM 71.6 °F 68.0 °F 88% 29.99 in 5.0 mi South 8.1 mph - 0.03 in Rain , Thunderstorm Thunderstorms and Rain
5:17 AM 73.4 °F 68.0 °F 83% 29.99 in 5.0 mi ESE 9.2 mph - 0.09 in Rain Heavy Rain
5:53 AM 72.0 °F 68.0 °F 87% 29.99 in 7.0 mi NW 6.9 mph - 0.23 in Rain Light Rain
6:53 AM 72.0 °F 68.0 °F 87% 30.01 in 9.0 mi SW 6.9 mph - 0.04 in Rain Light Rain
7:53 AM 72.0 °F 69.1 °F 91% 30.03 in 7.0 mi West 8.1 mph - 0.08 in Rain Rain
8:53 AM 72.0 °F 69.1 °F 91% 30.03 in 9.0 mi West 9.2 mph - 0.05 in Rain Light Rain
9:53 AM 72.0 °F 69.1 °F 91% 30.02 in 10.0 mi West 8.1 mph - 0.05 in Rain Light Rain
10:53 AM 73.0 °F 69.1 °F 87% 30.01 in 10.0 mi WNW 4.6 mph - 0.03 in Rain Light Rain
11:35 AM 73.4 °F 68.0 °F 83% 30.00 in 10.0 mi WNW 5.8 mph - 0.00 in   Partly Cloudy
11:53 AM 73.0 °F 69.1 °F 87% 29.98 in 10.0 mi WNW 9.2 mph - 0.00 in   Overcast
12:51 PM 77.0 °F 69.8 °F 78% 29.99 in 10.0 mi Calm Calm - 0.00 in   Mostly Cloudy
12:53 PM 77.0 °F 69.1 °F 76% 29.98 in 10.0 mi Calm Calm - 0.00 in   Mostly Cloudy
1:01 PM 77.0 °F 68.0 °F 74% 29.98 in 10.0 mi Calm Calm - N/A   Scattered Clouds
1:33 PM 77.0 °F 69.8 °F 78% 29.97 in 10.0 mi NNW 4.6 mph - N/A   Mostly Cloudy
1:53 PM 77.0 °F 70.0 °F 79% 29.96 in 10.0 mi NW 3.5 mph - N/A   Overcast
2:53 PM 77.0 °F 71.1 °F 82% 29.96 in 10.0 mi NNW 3.5 mph - 0.00 in   Overcast
3:50 PM 78.8 °F 73.4 °F 83% 29.95 in 10.0 mi East 12.7 mph - 0.00 in Rain Light Rain
3:53 PM 79.0 °F 73.0 °F 82% 29.94 in 10.0 mi East 12.7 mph - 0.00 in Rain Light Rain
4:11 PM 78.8 °F 73.4 °F 83% 29.94 in 10.0 mi East 11.5 mph - 0.00 in   Overcast
4:31 PM 78.8 °F 73.4 °F 83% 29.94 in 10.0 mi East 12.7 mph - 0.00 in   Overcast
5:26 PM 78.8 °F 73.4 °F 83% 29.94 in 10.0 mi ENE 15.0 mph - N/A   Overcast
5:53 PM 79.0 °F 72.0 °F 79% 29.93 in 10.0 mi ENE 16.1 mph - N/A   Scattered Clouds
6:53 PM 79.0 °F 72.0 °F 79% 29.95 in 10.0 mi ENE 16.1 mph - N/A   Mostly Cloudy
7:27 PM 78.8 °F 73.4 °F 83% 29.97 in 10.0 mi ENE 17.3 mph - N/A   Overcast
7:38 PM 78.8 °F 71.6 °F 78% 29.97 in 10.0 mi ENE 17.3 mph - N/A   Mostly Cloudy
7:53 PM 78.1 °F 73.0 °F 84% 29.97 in 10.0 mi ENE 13.8 mph - N/A   Scattered Clouds
8:10 PM 78.8 °F 71.6 °F 78% 29.99 in 10.0 mi ENE 17.3 mph - N/A   Mostly Cloudy
8:28 PM 78.8 °F 71.6 °F 78% 29.99 in 10.0 mi ENE 16.1 mph - N/A   Mostly Cloudy
8:53 PM 78.1 °F 72.0 °F 81% 29.99 in 10.0 mi ENE 15.0 mph - N/A   Mostly Cloudy
9:53 PM 78.1 °F 72.0 °F 81% 30.00 in 10.0 mi ENE 15.0 mph - N/A   Overcast
10:53 PM 78.1 °F 72.0 °F 81% 30.01 in 9.0 mi NE 11.5 mph - 0.00 in Rain Light Rain
11:19 PM 75.2 °F 71.6 °F 89% 30.01 in 7.0 mi ENE 13.8 mph 23.0 mph 0.02 in Rain Light Rain
11:32 PM 77.0 °F 73.4 °F 89% 30.02 in 10.0 mi ENE 12.7 mph - 0.02 in   Overcast
11:53 PM 78.1 °F 72.0 °F 81% 30.01 in 10.0 mi ENE 13.8 mph - 0.02 in   Overcast